When you browse on this site, cookies collect data to enhance your experience and personalize the content and advertising you see.
Visit our Privacy Policy to learn more. By continuing to use the site, you agree to this use of cookies and data.
  • In United Kingdom
  • List of Countries
  • For 7 days
  • Water Temperature
  • Weather Map
  • Weather Widgets
  • user-avatar
    Login

    Hourly Weather Eisenstadt

    Today, 12 December, Thursday

    Time Temperature Precipitation Wind Pressure Humidity
    00:00 -3°C° 0 mm 2 mps 717 mmHg 61%
    01:00 -3°C° 0 mm 2 mps 717 mmHg 64%
    02:00 -3°C° 0 mm 2 mps 717 mmHg 65%
    03:00 -1°C° 0 mm 1 mps 716 mmHg 66%
    04:00 -1°C° 0 mm 1 mps 716 mmHg 68%
    05:00 -1°C° 0 mm 1 mps 716 mmHg 69%
    06:00 -1°C° 0 mm 1 mps 716 mmHg 70%
    07:00 -1°C° 0 mm 0 mps 716 mmHg 67%
    08:00 -1°C° 0 mm 0 mps 716 mmHg 69%
    09:00 0°C° 0 mm 0 mps 716 mmHg 71%
    10:00 0°C° 0 mm 0 mps 715 mmHg 73%
    11:00 +1°C° 0.1 mm 0 mps 715 mmHg 76%
    12:00 +2°C° 0.1 mm 1 mps 715 mmHg 80%
    13:00 +2°C° 0 mm 1 mps 715 mmHg 81%
    14:00 +1°C° 0.1 mm 1 mps 714 mmHg 86%
    15:00 0°C° 0.1 mm 0 mps 714 mmHg 92%
    16:00 -1°C° 0.1 mm 0 mps 713 mmHg 97%
    17:00 -1°C° 0.4 mm 0 mps 713 mmHg 98%
    18:00 -1°C° 0.4 mm 0 mps 713 mmHg 98%
    19:00 -1°C° 0.4 mm 0 mps 713 mmHg 98%
    20:00 -1°C° 0.1 mm 0 mps 712 mmHg 98%
    21:00 -1°C° 0.1 mm 0 mps 712 mmHg 98%
    22:00 -1°C° 0.1 mm 0 mps 711 mmHg 97%
    23:00 0°C° 0.1 mm 1 mps 710 mmHg 97%

    Tomorrow, 13 December, Friday

    Time Temperature Precipitation Wind Pressure Humidity
    00:00 0°C° 0.1 mm 1 mps 710 mmHg 97%
    01:00 0°C° 0.1 mm 1 mps 709 mmHg 97%
    02:00 -2°C° 0 mm 2 mps 708 mmHg 97%
    03:00 -3°C° 0 mm 2 mps 707 mmHg 96%
    04:00 -4°C° 0 mm 3 mps 706 mmHg 96%
    05:00 -4°C° 0 mm 4 mps 706 mmHg 94%
    06:00 -4°C° 0 mm 4 mps 705 mmHg 93%
    07:00 -5°C° 0 mm 5 mps 704 mmHg 92%
    08:00 -4°C° 0 mm 5 mps 704 mmHg 89%
    09:00 -4°C° 0 mm 6 mps 703 mmHg 86%
    10:00 -3°C° 0 mm 6 mps 702 mmHg 84%
    11:00 -3°C° 0 mm 7 mps 702 mmHg 80%
    12:00 -2°C° 0 mm 7 mps 701 mmHg 77%
    13:00 -1°C° 0 mm 7 mps 701 mmHg 74%
    14:00 -1°C° 0 mm 6 mps 701 mmHg 76%
    15:00 -1°C° 0 mm 4 mps 701 mmHg 78%
    16:00 0°C° 0 mm 3 mps 701 mmHg 80%
    17:00 +1°C° 1.2 mm 2 mps 701 mmHg 85%
    18:00 +1°C° 1.2 mm 2 mps 702 mmHg 89%
    19:00 +1°C° 1.2 mm 2 mps 702 mmHg 94%
    20:00 +1°C° 1.7 mm 2 mps 702 mmHg 94%
    21:00 +1°C° 1.7 mm 2 mps 703 mmHg 94%
    22:00 +1°C° 1.7 mm 2 mps 703 mmHg 94%
    23:00 0°C° 0.2 mm 3 mps 704 mmHg 92%

    Day after tomorrow, 14 December, Saturday

    Time Temperature Precipitation Wind Pressure Humidity
    00:00 0°C° 0.2 mm 3 mps 705 mmHg 90%
    01:00 0°C° 0.2 mm 3 mps 706 mmHg 88%
    02:00 -1°C° 0 mm 4 mps 706 mmHg 84%
    03:00 0°C° 0 mm 4 mps 707 mmHg 80%
    04:00 0°C° 0 mm 5 mps 707 mmHg 76%
    05:00 0°C° 0 mm 4 mps 708 mmHg 78%
    06:00 0°C° 0 mm 4 mps 709 mmHg 79%
    07:00 +1°C° 0 mm 3 mps 709 mmHg 80%
    08:00 +1°C° 0 mm 3 mps 710 mmHg 79%
    09:00 +2°C° 0 mm 2 mps 710 mmHg 78%
    10:00 +3°C° 0 mm 2 mps 711 mmHg 76%
    11:00 +3°C° 0 mm 2 mps 711 mmHg 76%
    12:00 +4°C° 0 mm 2 mps 712 mmHg 76%
    13:00 +4°C° 0 mm 3 mps 712 mmHg 76%
    14:00 +4°C° 0 mm 2 mps 712 mmHg 79%
    15:00 +3°C° 0 mm 2 mps 713 mmHg 83%
    16:00 +2°C° 0 mm 2 mps 713 mmHg 86%
    17:00 +2°C° 0 mm 2 mps 714 mmHg 85%
    18:00 +1°C° 0 mm 2 mps 715 mmHg 83%
    19:00 +2°C° 0 mm 1 mps 716 mmHg 82%
    20:00 +1°C° 0 mm 2 mps 717 mmHg 81%
    21:00 +2°C° 0 mm 2 mps 717 mmHg 81%
    22:00 +2°C° 0 mm 2 mps 718 mmHg 81%
    23:00 +2°C° 0 mm 2 mps 718 mmHg 79%

    15 December, Sunday

    Time Temperature Precipitation Wind Pressure Humidity
    00:00 +2°C° 0 mm 2 mps 719 mmHg 77%
    01:00 +2°C° 0 mm 2 mps 719 mmHg 75%
    02:00 +2°C° 0 mm 2 mps 719 mmHg 74%
    03:00 +2°C° 0 mm 2 mps 719 mmHg 73%
    04:00 +2°C° 0 mm 2 mps 719 mmHg 72%
    05:00 +1°C° 0 mm 2 mps 719 mmHg 72%
    06:00 +1°C° 0 mm 2 mps 719 mmHg 72%
    07:00 +1°C° 0 mm 2 mps 719 mmHg 72%
    08:00 +1°C° 0 mm 3 mps 719 mmHg 71%
    09:00 +1°C° 0 mm 3 mps 719 mmHg 71%
    10:00 +2°C° 0 mm 3 mps 720 mmHg 71%
    11:00 +4°C° 0 mm 2 mps 720 mmHg 72%
    12:00 +4°C° 0 mm 2 mps 720 mmHg 73%
    13:00 +5°C° 0 mm 2 mps 720 mmHg 74%
    14:00 +4°C° 0 mm 2 mps 720 mmHg 77%
    15:00 +4°C° 0 mm 1 mps 721 mmHg 80%
    16:00 +3°C° 0 mm 1 mps 721 mmHg 84%
    17:00 +3°C° 0 mm 1 mps 721 mmHg 82%
    18:00 +3°C° 0 mm 1 mps 722 mmHg 81%
    19:00 +3°C° 0 mm 1 mps 722 mmHg 80%
    20:00 +3°C° 0 mm 1 mps 722 mmHg 77%
    21:00 +4°C° 0 mm 1 mps 723 mmHg 75%
    22:00 +4°C° 0 mm 1 mps 723 mmHg 73%
    23:00 +4°C° 0 mm 1 mps 723 mmHg 74%

    16 December, Monday

    Time Temperature Precipitation Wind Pressure Humidity
    00:00 +3°C° 0 mm 1 mps 723 mmHg 76%
    01:00 +3°C° 0 mm 1 mps 723 mmHg 78%
    02:00 +3°C° 0 mm 1 mps 723 mmHg 80%
    03:00 +2°C° 0 mm 1 mps 723 mmHg 83%
    04:00 +2°C° 0 mm 1 mps 722 mmHg 85%
    05:00 +1°C° 0 mm 1 mps 722 mmHg 86%
    06:00 +1°C° 0 mm 1 mps 722 mmHg 88%
    07:00 +1°C° 0 mm 1 mps 722 mmHg 89%
    08:00 +1°C° 0 mm 2 mps 722 mmHg 86%
    09:00 +2°C° 0 mm 2 mps 722 mmHg 84%
    10:00 +3°C° 0 mm 2 mps 723 mmHg 82%
    11:00 +4°C° 0 mm 2 mps 722 mmHg 82%
    12:00 +5°C° 0 mm 2 mps 722 mmHg 82%
    13:00 +5°C° 0 mm 2 mps 722 mmHg 82%
    14:00 +5°C° 0 mm 2 mps 722 mmHg 85%
    15:00 +5°C° 0 mm 1 mps 721 mmHg 88%
    16:00 +4°C° 0 mm 1 mps 721 mmHg 91%
    17:00 +4°C° 0 mm 1 mps 721 mmHg 91%
    18:00 +4°C° 0 mm 1 mps 721 mmHg 91%
    19:00 +4°C° 0 mm 1 mps 721 mmHg 91%
    20:00 +4°C° 0 mm 1 mps 721 mmHg 91%
    21:00 +3°C° 0 mm 2 mps 721 mmHg 92%
    22:00 +3°C° 0 mm 2 mps 721 mmHg 92%
    23:00 +3°C° 0 mm 2 mps 720 mmHg 91%

    17 December, Tuesday

    Time Temperature Precipitation Wind Pressure Humidity
    00:00 +3°C° 0 mm 2 mps 720 mmHg 90%
    01:00 +2°C° 0 mm 3 mps 720 mmHg 90%
    02:00 +2°C° 0 mm 3 mps 720 mmHg 89%
    03:00 +3°C° 0 mm 3 mps 720 mmHg 89%
    04:00 +3°C° 0 mm 3 mps 720 mmHg 88%
    05:00 +3°C° 0 mm 3 mps 720 mmHg 88%
    06:00 +3°C° 0 mm 3 mps 720 mmHg 87%
    07:00 +4°C° 0 mm 3 mps 720 mmHg 86%
    08:00 +4°C° 0 mm 4 mps 721 mmHg 84%
    09:00 +5°C° 0 mm 4 mps 721 mmHg 82%
    10:00 +6°C° 0 mm 4 mps 721 mmHg 80%
    11:00 +6°C° 0 mm 5 mps 721 mmHg 79%
    12:00 +7°C° 0 mm 5 mps 721 mmHg 79%
    13:00 +7°C° 0 mm 6 mps 720 mmHg 78%
    14:00 +7°C° 0 mm 5 mps 721 mmHg 80%
    15:00 +6°C° 0 mm 5 mps 721 mmHg 82%
    16:00 +6°C° 0 mm 4 mps 721 mmHg 84%
    17:00 +6°C° 0 mm 4 mps 721 mmHg 85%
    18:00 +5°C° 0 mm 3 mps 721 mmHg 86%
    19:00 +6°C° 0 mm 2 mps 722 mmHg 87%
    20:00 +6°C° 0 mm 2 mps 722 mmHg 87%
    21:00 +6°C° 0 mm 2 mps 722 mmHg 86%
    22:00 +6°C° 0 mm 2 mps 723 mmHg 86%
    23:00 +6°C° 0 mm 2 mps 723 mmHg 86%
    Show more